map of STM home
STM - Airport
Location
City:  Santarém, Pará, Brazil
Name:Santarém - Maestro Wilson Fonseca Airport
ICAO:SBSN
IATA:STM

Details
Type:Airport (Aerodrome, Airfield)
Use:Public/Civil, International (customs port of entry)
Latitude:2°25'21"S (-2.422430)
Longitude:54°47'34"W (-54.792788)
Datum:WGS 1984
Elevation:198 ft (60 m)
Variation:18.33°W (WMM2015 magnetic declination)
-0.08° annual change
Runways:1
Longest:7874 × 148 ft (2400 × 45 m), paved

Time
Time Zone:UTC-3
Local Time:

Weather
METAR:SBSN 171400Z 09013KT 9999 SCT020 32/24 Q1014
TAF:SBSN 171000Z 1712/1812 09010KT 9999 FEW020 TX33/1716Z TN26/1807Z
BECMG 1718/1720 FEW020 FEW025TCU
BECMG 1722/1724 12005KT FEW017
BECMG 1802/1804 09008KT CAVOK
BECMG 1809/1811 9999 FEW020
RMK PDY

Related Locations
Nearby:
Farthest:MAL: 12381 mi / 19926 km
Mangole [Falabisahaya Airport], Mangole Island, MA, ID

Find:

   beyond  
but within

Other Information
Maps:
NOTAMs:
Links:
Sources:

  
flag of Brazil
flag of Pará
  

Sectional Chart

Flight Planning
at skyvector.com

Satellite Image

Google Maps Satellite view

 

Copyright © 2004-2017 Karl L. Swartz. All rights reserved.
The Great Circle Mapper name and logo are trademarks of the Great Circle Mapper.
All other trademarks mentioned herein belong to their respective owners.
Please see credits for attibutions and further copyright information.

  Follow gcmap on Facebook Follow gcmap on Twitter Follow gcmap on Google+ GCmap on LinkedIn

hCard Microformat

Geo Microformat